Year,Month,Day,Hour,Minute,Value (Times are PST for windgust in km/hr)
2019,07,16,00,00,0.00
2019,07,16,00,01,0.00
2019,07,16,00,02,0.00
2019,07,16,00,04,1.60
2019,07,16,00,05,1.60
2019,07,16,00,06,0.00
2019,07,16,00,07,0.00
2019,07,16,00,09,0.00
2019,07,16,00,11,0.00
2019,07,16,00,12,0.00
2019,07,16,00,13,0.00
2019,07,16,00,14,0.00
2019,07,16,00,16,0.00
2019,07,16,00,17,0.00
2019,07,16,00,18,0.00
2019,07,16,00,20,0.00
2019,07,16,00,21,0.00
2019,07,16,00,22,0.00
2019,07,16,00,23,0.00
2019,07,16,00,25,0.00
2019,07,16,00,27,0.00
2019,07,16,00,28,0.00
2019,07,16,00,29,0.00
2019,07,16,00,30,0.00
2019,07,16,00,32,0.00
2019,07,16,00,33,0.00
2019,07,16,00,34,0.00
2019,07,16,00,36,0.00
2019,07,16,00,38,0.00
2019,07,16,00,40,0.00
2019,07,16,00,42,0.00
2019,07,16,00,43,0.00
2019,07,16,00,44,0.00
2019,07,16,00,46,0.00
2019,07,16,00,47,0.00
2019,07,16,00,48,0.00
2019,07,16,00,49,0.00
2019,07,16,00,50,0.00
2019,07,16,00,52,0.00
2019,07,16,00,53,0.00
2019,07,16,00,55,0.00
2019,07,16,00,56,0.00
2019,07,16,00,58,0.00
2019,07,16,01,00,0.00
2019,07,16,01,01,0.00
2019,07,16,01,02,0.00
2019,07,16,01,04,0.00
2019,07,16,01,05,0.00
2019,07,16,01,07,0.00
2019,07,16,01,09,0.00
2019,07,16,01,10,0.00
2019,07,16,01,12,0.00
2019,07,16,01,14,0.00
2019,07,16,01,15,0.00
2019,07,16,01,16,0.00
2019,07,16,01,18,0.00
2019,07,16,01,19,0.00
2019,07,16,01,20,3.20
2019,07,16,01,22,3.20
2019,07,16,01,23,3.20
2019,07,16,01,25,3.20
2019,07,16,01,27,1.60
2019,07,16,01,28,1.60
2019,07,16,01,29,1.60
2019,07,16,01,31,0.00
2019,07,16,01,33,0.00
2019,07,16,01,35,0.00
2019,07,16,01,36,0.00
2019,07,16,01,38,0.00
2019,07,16,01,39,0.00
2019,07,16,01,41,0.00
2019,07,16,01,42,0.00
2019,07,16,01,43,0.00
2019,07,16,01,45,0.00
2019,07,16,01,46,0.00
2019,07,16,01,47,0.00
2019,07,16,01,49,0.00
2019,07,16,01,51,0.00
2019,07,16,01,52,0.00
2019,07,16,01,53,0.00
2019,07,16,01,55,0.00
2019,07,16,01,57,0.00
2019,07,16,01,59,0.00
2019,07,16,02,00,0.00
2019,07,16,02,02,0.00
2019,07,16,02,04,0.00
2019,07,16,02,05,0.00
2019,07,16,02,06,0.00
2019,07,16,02,07,0.00
2019,07,16,02,09,0.00
2019,07,16,02,11,0.00
2019,07,16,02,12,0.00
2019,07,16,02,13,0.00
2019,07,16,02,15,0.00
2019,07,16,02,16,0.00
2019,07,16,02,18,0.00
2019,07,16,02,19,0.00
2019,07,16,02,20,0.00
2019,07,16,02,22,0.00
2019,07,16,02,24,0.00
2019,07,16,02,25,0.00
2019,07,16,02,27,0.00
2019,07,16,02,28,0.00
2019,07,16,02,29,0.00
2019,07,16,02,31,0.00
2019,07,16,02,32,0.00
2019,07,16,02,34,0.00
2019,07,16,02,35,0.00
2019,07,16,02,36,0.00
2019,07,16,02,37,0.00
2019,07,16,02,38,0.00
2019,07,16,02,40,0.00
2019,07,16,02,42,0.00
2019,07,16,02,43,0.00
2019,07,16,02,45,0.00
2019,07,16,02,46,0.00
2019,07,16,02,47,0.00
2019,07,16,02,49,0.00
2019,07,16,02,50,0.00
2019,07,16,02,51,0.00
2019,07,16,02,52,0.00
2019,07,16,02,53,0.00
2019,07,16,02,55,0.00
2019,07,16,02,56,0.00
2019,07,16,02,58,0.00
2019,07,16,02,59,0.00
2019,07,16,03,00,0.00
2019,07,16,03,02,0.00
2019,07,16,03,03,0.00
2019,07,16,03,05,0.00
2019,07,16,03,06,0.00
2019,07,16,03,07,0.00
2019,07,16,03,08,0.00
2019,07,16,03,10,0.00
2019,07,16,03,11,0.00
2019,07,16,03,12,0.00
2019,07,16,03,13,0.00
2019,07,16,03,14,0.00
2019,07,16,03,16,0.00
2019,07,16,03,17,0.00
2019,07,16,03,19,0.00
2019,07,16,03,20,0.00
2019,07,16,03,21,0.00
2019,07,16,03,22,0.00
2019,07,16,03,24,0.00
2019,07,16,03,25,0.00
2019,07,16,03,26,0.00
2019,07,16,03,27,0.00
2019,07,16,03,29,0.00
2019,07,16,03,30,0.00
2019,07,16,03,31,0.00
2019,07,16,03,33,0.00
2019,07,16,03,34,0.00
2019,07,16,03,36,0.00
2019,07,16,03,37,0.00
2019,07,16,03,38,0.00
2019,07,16,03,40,0.00
2019,07,16,03,41,0.00
2019,07,16,03,42,0.00
2019,07,16,03,44,0.00
2019,07,16,03,45,0.00
2019,07,16,03,46,0.00
2019,07,16,03,47,0.00
2019,07,16,03,49,0.00
2019,07,16,03,50,0.00
2019,07,16,03,51,0.00
2019,07,16,03,52,0.00
2019,07,16,03,54,0.00
2019,07,16,03,56,0.00
2019,07,16,03,57,0.00
2019,07,16,03,58,0.00
2019,07,16,04,00,0.00
2019,07,16,04,01,0.00
2019,07,16,04,02,0.00
2019,07,16,04,03,0.00
2019,07,16,04,04,0.00
2019,07,16,04,05,0.00
2019,07,16,04,06,0.00
2019,07,16,04,07,0.00
2019,07,16,04,08,0.00
2019,07,16,04,09,0.00
2019,07,16,04,10,0.00
2019,07,16,04,12,0.00
2019,07,16,04,13,0.00
2019,07,16,04,15,0.00
2019,07,16,04,16,0.00
2019,07,16,04,18,0.00
2019,07,16,04,20,0.00
2019,07,16,04,21,0.00
2019,07,16,04,22,0.00
2019,07,16,04,24,0.00
2019,07,16,04,26,0.00
2019,07,16,04,27,0.00
2019,07,16,04,28,0.00
2019,07,16,04,29,0.00
2019,07,16,04,31,0.00
2019,07,16,04,32,0.00
2019,07,16,04,33,0.00
2019,07,16,04,34,0.00
2019,07,16,04,35,0.00
2019,07,16,04,36,0.00
2019,07,16,04,37,0.00
2019,07,16,04,38,0.00
2019,07,16,04,39,0.00
2019,07,16,04,40,0.00
2019,07,16,04,41,0.00
2019,07,16,04,42,0.00
2019,07,16,04,43,0.00
2019,07,16,04,44,0.00
2019,07,16,04,45,0.00
2019,07,16,04,46,0.00
2019,07,16,04,47,0.00
2019,07,16,04,48,0.00
2019,07,16,04,50,0.00
2019,07,16,04,51,0.00
2019,07,16,04,52,0.00
2019,07,16,04,53,0.00
2019,07,16,04,54,0.00
2019,07,16,04,55,0.00
2019,07,16,04,56,0.00
2019,07,16,04,57,0.00
2019,07,16,04,58,0.00
2019,07,16,04,59,0.00
2019,07,16,05,01,0.00
2019,07,16,05,02,0.00
2019,07,16,05,03,0.00
2019,07,16,05,04,0.00
2019,07,16,05,05,0.00
2019,07,16,05,06,0.00
2019,07,16,05,07,0.00
2019,07,16,05,08,0.00
2019,07,16,05,09,0.00
2019,07,16,05,10,0.00
2019,07,16,05,11,0.00
2019,07,16,05,12,0.00
2019,07,16,05,13,0.00
2019,07,16,05,14,0.00
2019,07,16,05,15,0.00
2019,07,16,05,16,0.00
2019,07,16,05,17,0.00
2019,07,16,05,18,0.00
2019,07,16,05,19,0.00
2019,07,16,05,20,0.00
2019,07,16,05,21,0.00
2019,07,16,05,22,0.00
2019,07,16,05,23,0.00
2019,07,16,05,25,0.00
2019,07,16,05,26,0.00
2019,07,16,05,28,0.00
2019,07,16,05,29,0.00
2019,07,16,05,30,0.00
2019,07,16,05,31,0.00
2019,07,16,05,32,0.00
2019,07,16,05,33,0.00
2019,07,16,05,34,0.00
2019,07,16,05,36,0.00
2019,07,16,05,37,0.00
2019,07,16,05,38,0.00
2019,07,16,05,39,0.00
2019,07,16,05,40,0.00
2019,07,16,05,42,0.00
2019,07,16,05,43,0.00
2019,07,16,05,44,0.00
2019,07,16,05,45,0.00
2019,07,16,05,46,0.00
2019,07,16,05,47,0.00
2019,07,16,05,48,0.00
2019,07,16,05,49,0.00
2019,07,16,05,50,0.00
2019,07,16,05,51,0.00
2019,07,16,05,52,0.00
2019,07,16,05,53,0.00
2019,07,16,05,54,0.00
2019,07,16,05,56,0.00
2019,07,16,05,57,0.00
2019,07,16,05,59,0.00
2019,07,16,06,00,0.00
2019,07,16,06,02,0.00
2019,07,16,06,04,0.00
2019,07,16,06,05,0.00
2019,07,16,06,06,0.00
2019,07,16,06,07,0.00
2019,07,16,06,09,0.00
2019,07,16,06,10,0.00
2019,07,16,06,11,0.00
2019,07,16,06,12,0.00
2019,07,16,06,13,0.00
2019,07,16,06,14,0.00
2019,07,16,06,15,0.00
2019,07,16,06,16,0.00
2019,07,16,06,17,0.00
2019,07,16,06,18,0.00
2019,07,16,06,19,0.00
2019,07,16,06,20,0.00
2019,07,16,06,21,0.00
2019,07,16,06,22,0.00
2019,07,16,06,23,0.00
2019,07,16,06,24,0.00
2019,07,16,06,25,0.00
2019,07,16,06,26,0.00
2019,07,16,06,27,0.00
2019,07,16,06,28,0.00
2019,07,16,06,29,0.00
2019,07,16,06,30,0.00
2019,07,16,06,31,0.00
2019,07,16,06,32,0.00
2019,07,16,06,33,0.00
2019,07,16,06,34,0.00
2019,07,16,06,35,0.00
2019,07,16,06,36,0.00
2019,07,16,06,37,0.00
2019,07,16,06,38,0.00
2019,07,16,06,39,0.00
2019,07,16,06,40,0.00
2019,07,16,06,41,0.00
2019,07,16,06,42,0.00
2019,07,16,06,43,0.00
2019,07,16,06,44,0.00
2019,07,16,06,45,0.00
2019,07,16,06,46,0.00
2019,07,16,06,47,0.00
2019,07,16,06,48,0.00
2019,07,16,06,49,0.00
2019,07,16,06,50,0.00
2019,07,16,06,51,0.00
2019,07,16,06,52,0.00
2019,07,16,06,53,0.00
2019,07,16,06,54,0.00
2019,07,16,06,55,0.00
2019,07,16,06,56,0.00
2019,07,16,06,57,0.00
2019,07,16,06,58,0.00
2019,07,16,06,59,0.00
2019,07,16,07,00,0.00
2019,07,16,07,01,0.00
2019,07,16,07,02,0.00
2019,07,16,07,03,0.00
2019,07,16,07,04,0.00
2019,07,16,07,05,0.00
2019,07,16,07,06,0.00
2019,07,16,07,07,0.00
2019,07,16,07,08,0.00
2019,07,16,07,09,0.00
2019,07,16,07,10,0.00
2019,07,16,07,11,0.00
2019,07,16,07,12,0.00
2019,07,16,07,13,0.00
2019,07,16,07,14,0.00
2019,07,16,07,15,0.00
2019,07,16,07,16,0.00
2019,07,16,07,17,0.00
2019,07,16,07,18,0.00
2019,07,16,07,19,0.00
2019,07,16,07,20,1.60
2019,07,16,07,21,1.60
2019,07,16,07,22,1.60
2019,07,16,07,23,1.60
2019,07,16,07,24,1.60
2019,07,16,07,25,0.00
2019,07,16,07,26,0.00
2019,07,16,07,27,0.00
2019,07,16,07,28,0.00
2019,07,16,07,29,0.00
2019,07,16,07,30,0.00
2019,07,16,07,31,0.00
2019,07,16,07,32,0.00
2019,07,16,07,33,0.00
2019,07,16,07,34,0.00
2019,07,16,07,35,0.00
2019,07,16,07,36,1.60
2019,07,16,07,37,1.60
2019,07,16,07,38,1.60
2019,07,16,07,39,1.60
2019,07,16,07,40,0.00
2019,07,16,07,41,0.00
2019,07,16,07,42,0.00
2019,07,16,07,43,0.00
2019,07,16,07,44,0.00
2019,07,16,07,46,0.00
2019,07,16,07,47,0.00
2019,07,16,07,49,0.00
2019,07,16,07,50,0.00
2019,07,16,07,51,0.00
2019,07,16,07,53,0.00
2019,07,16,07,54,0.00
2019,07,16,07,56,1.60
2019,07,16,07,57,1.60
2019,07,16,07,58,1.60
2019,07,16,07,59,1.60
2019,07,16,08,00,1.60
2019,07,16,08,01,0.00
2019,07,16,08,02,0.00
2019,07,16,08,03,0.00
2019,07,16,08,04,0.00
2019,07,16,08,05,0.00
2019,07,16,08,06,0.00
2019,07,16,08,07,0.00
2019,07,16,08,08,0.00
2019,07,16,08,09,0.00
2019,07,16,08,10,0.00
2019,07,16,08,11,0.00
2019,07,16,08,12,0.00
2019,07,16,08,13,0.00
2019,07,16,08,14,0.00
2019,07,16,08,15,0.00
2019,07,16,08,16,0.00
2019,07,16,08,17,0.00
2019,07,16,08,18,0.00
2019,07,16,08,19,0.00
2019,07,16,08,20,0.00
2019,07,16,08,21,0.00
2019,07,16,08,22,0.00
2019,07,16,08,23,0.00
2019,07,16,08,24,0.00
2019,07,16,08,25,0.00
2019,07,16,08,26,0.00
2019,07,16,08,27,0.00
2019,07,16,08,28,0.00
2019,07,16,08,29,0.00
2019,07,16,08,30,0.00
2019,07,16,08,31,0.00
2019,07,16,08,32,0.00
2019,07,16,08,33,0.00
2019,07,16,08,34,0.00
2019,07,16,08,35,0.00
2019,07,16,08,36,0.00
2019,07,16,08,37,0.00
2019,07,16,08,38,0.00
2019,07,16,08,39,0.00
2019,07,16,08,40,0.00
2019,07,16,08,41,0.00
2019,07,16,08,42,0.00
2019,07,16,08,43,0.00
2019,07,16,08,44,0.00
2019,07,16,08,45,0.00
2019,07,16,08,46,0.00
2019,07,16,08,47,0.00
2019,07,16,08,48,0.00
2019,07,16,08,49,0.00
2019,07,16,08,50,0.00
2019,07,16,08,51,0.00
2019,07,16,08,52,0.00
2019,07,16,08,53,3.20
2019,07,16,08,54,4.80
2019,07,16,08,55,4.80
2019,07,16,08,56,0.00
2019,07,16,08,57,0.00
2019,07,16,08,58,0.00
2019,07,16,08,59,3.20
2019,07,16,09,00,4.80
2019,07,16,09,01,0.00
2019,07,16,09,02,0.00
2019,07,16,09,03,0.00
2019,07,16,09,04,0.00
2019,07,16,09,05,0.00
2019,07,16,09,06,0.00
2019,07,16,09,07,0.00
2019,07,16,09,08,4.80
2019,07,16,09,09,4.80
2019,07,16,09,10,4.80
2019,07,16,09,11,0.00
2019,07,16,09,12,0.00
2019,07,16,09,13,0.00
2019,07,16,09,14,0.00
2019,07,16,09,15,0.00
2019,07,16,09,16,0.00
2019,07,16,09,17,0.00
2019,07,16,09,18,0.00
2019,07,16,09,19,0.00
2019,07,16,09,20,0.00
2019,07,16,09,21,0.00
2019,07,16,09,22,0.00
2019,07,16,09,23,0.00
2019,07,16,09,24,0.00
2019,07,16,09,25,1.60
2019,07,16,09,26,0.00
2019,07,16,09,27,0.00
2019,07,16,09,28,0.00
2019,07,16,09,29,0.00
2019,07,16,09,30,0.00
2019,07,16,09,31,0.00
2019,07,16,09,32,0.00
2019,07,16,09,33,0.00
2019,07,16,09,34,0.00
2019,07,16,09,35,0.00
2019,07,16,09,36,0.00
2019,07,16,09,37,0.00
2019,07,16,09,38,0.00
2019,07,16,09,39,0.00
2019,07,16,09,40,0.00
2019,07,16,09,41,0.00
2019,07,16,09,42,0.00
2019,07,16,09,43,0.00
2019,07,16,09,44,0.00
2019,07,16,09,45,0.00
2019,07,16,09,46,0.00
2019,07,16,09,47,0.00
2019,07,16,09,48,0.00
2019,07,16,09,49,0.00
2019,07,16,09,50,0.00
2019,07,16,09,51,0.00
2019,07,16,09,52,0.00
2019,07,16,09,53,0.00
2019,07,16,09,54,0.00
2019,07,16,09,55,0.00
2019,07,16,09,56,0.00
2019,07,16,09,57,0.00
2019,07,16,09,58,0.00
2019,07,16,09,59,0.00
2019,07,16,10,00,0.00
2019,07,16,10,01,1.60
2019,07,16,10,02,4.80
2019,07,16,10,03,4.80
2019,07,16,10,04,4.80
2019,07,16,10,05,6.40
2019,07,16,10,06,8.00
2019,07,16,10,07,8.00
2019,07,16,10,08,8.00
2019,07,16,10,09,8.00
2019,07,16,10,10,8.00
2019,07,16,10,11,3.20
2019,07,16,10,12,3.20
2019,07,16,10,13,3.20
2019,07,16,10,14,3.20
2019,07,16,10,15,3.20
2019,07,16,10,16,0.00
2019,07,16,10,17,1.60
2019,07,16,10,18,4.80
2019,07,16,10,19,4.80
2019,07,16,10,20,4.80
2019,07,16,10,21,0.00
2019,07,16,10,22,0.00
2019,07,16,10,23,0.00
2019,07,16,10,24,0.00
2019,07,16,10,25,0.00
2019,07,16,10,26,0.00
2019,07,16,10,27,0.00
2019,07,16,10,28,0.00
2019,07,16,10,29,0.00
2019,07,16,10,30,0.00
2019,07,16,10,31,0.00
2019,07,16,10,32,0.00
2019,07,16,10,33,0.00
2019,07,16,10,34,0.00
2019,07,16,10,35,1.60
2019,07,16,10,36,0.00
2019,07,16,10,37,0.00
2019,07,16,10,38,0.00
2019,07,16,10,39,0.00
2019,07,16,10,40,0.00
2019,07,16,10,41,0.00
2019,07,16,10,42,0.00
2019,07,16,10,43,0.00
2019,07,16,10,44,0.00
2019,07,16,10,45,0.00
2019,07,16,10,46,0.00
2019,07,16,10,47,0.00
2019,07,16,10,48,1.60
2019,07,16,10,49,1.60
2019,07,16,10,50,1.60
2019,07,16,10,51,0.00
2019,07,16,10,52,4.80
2019,07,16,10,53,4.80
2019,07,16,10,54,4.80
2019,07,16,10,55,4.80
2019,07,16,10,56,0.00
2019,07,16,10,57,1.60
2019,07,16,10,58,1.60
2019,07,16,10,59,1.60
2019,07,16,11,00,1.60
2019,07,16,11,01,0.00
2019,07,16,11,02,0.00
2019,07,16,11,03,0.00
2019,07,16,11,04,0.00
2019,07,16,11,05,1.60
2019,07,16,11,06,3.20
2019,07,16,11,07,3.20
2019,07,16,11,08,3.20
2019,07,16,11,09,4.80
2019,07,16,11,10,4.80
2019,07,16,11,11,0.00
2019,07,16,11,12,8.00
2019,07,16,11,13,9.70
2019,07,16,11,14,9.70
2019,07,16,11,15,9.70
2019,07,16,11,16,0.00
2019,07,16,11,17,0.00
2019,07,16,11,18,0.00
2019,07,16,11,19,0.00
2019,07,16,11,20,3.20
2019,07,16,11,21,3.20
2019,07,16,11,22,6.40
2019,07,16,11,23,9.70
2019,07,16,11,24,9.70
2019,07,16,11,25,9.70
2019,07,16,11,26,4.80
2019,07,16,11,27,4.80
2019,07,16,11,28,4.80
2019,07,16,11,29,4.80
2019,07,16,11,30,4.80
2019,07,16,11,31,3.20
2019,07,16,11,32,3.20
2019,07,16,11,33,3.20
2019,07,16,11,34,8.00
2019,07,16,11,35,8.00
2019,07,16,11,36,1.60
2019,07,16,11,37,1.60
2019,07,16,11,38,1.60
2019,07,16,11,39,1.60
2019,07,16,11,40,1.60
2019,07,16,11,41,0.00
2019,07,16,11,42,3.20
2019,07,16,11,43,8.00
2019,07,16,11,44,9.70
2019,07,16,11,45,9.70
2019,07,16,11,46,4.80
2019,07,16,11,47,4.80
2019,07,16,11,48,4.80
2019,07,16,11,49,6.40
2019,07,16,11,50,6.40
2019,07,16,11,51,3.20
2019,07,16,11,52,3.20
2019,07,16,11,53,3.20
2019,07,16,11,54,3.20
2019,07,16,11,55,4.80
2019,07,16,11,56,4.80
2019,07,16,11,57,4.80
2019,07,16,11,58,6.40
2019,07,16,11,59,6.40
2019,07,16,12,00,8.00
2019,07,16,12,01,9.70
2019,07,16,12,02,9.70
2019,07,16,12,03,9.70
2019,07,16,12,04,9.70
2019,07,16,12,05,9.70
2019,07,16,12,06,4.80
2019,07,16,12,07,4.80
2019,07,16,12,08,4.80
2019,07,16,12,09,4.80
2019,07,16,12,10,4.80
2019,07,16,12,11,0.00
2019,07,16,12,12,0.00
2019,07,16,12,13,0.00
2019,07,16,12,14,0.00
2019,07,16,12,15,4.80
2019,07,16,12,16,3.20
2019,07,16,12,17,8.00
2019,07,16,12,18,8.00
2019,07,16,12,19,8.00
2019,07,16,12,20,8.00
2019,07,16,12,21,6.40
2019,07,16,12,22,6.40
2019,07,16,12,23,9.70
2019,07,16,12,24,9.70
2019,07,16,12,25,9.70
2019,07,16,12,26,3.20
2019,07,16,12,27,3.20
2019,07,16,12,28,6.40
2019,07,16,12,29,9.70
2019,07,16,12,30,9.70
2019,07,16,12,31,8.00
2019,07,16,12,32,8.00
2019,07,16,12,33,8.00
2019,07,16,12,34,8.00
2019,07,16,12,35,8.00
2019,07,16,12,36,0.00
2019,07,16,12,37,1.60
2019,07,16,12,38,1.60
2019,07,16,12,39,1.60
2019,07,16,12,40,4.80
2019,07,16,12,41,1.60
2019,07,16,12,42,3.20
2019,07,16,12,43,9.70
2019,07,16,12,44,9.70
2019,07,16,12,45,9.70
2019,07,16,12,46,4.80
2019,07,16,12,47,9.70
2019,07,16,12,48,9.70
2019,07,16,12,49,9.70
2019,07,16,12,50,9.70
2019,07,16,12,51,1.60
2019,07,16,12,52,1.60
2019,07,16,12,53,1.60
2019,07,16,12,54,1.60
2019,07,16,12,55,3.20
2019,07,16,12,56,0.00
2019,07,16,12,57,0.00
2019,07,16,12,58,0.00
2019,07,16,12,59,1.60
2019,07,16,13,00,1.60
2019,07,16,13,01,0.00
2019,07,16,13,02,0.00
2019,07,16,13,03,0.00
2019,07,16,13,04,0.00
2019,07,16,13,05,0.00
2019,07,16,13,06,1.60
2019,07,16,13,07,1.60
2019,07,16,13,08,1.60
2019,07,16,13,09,1.60
2019,07,16,13,10,1.60
2019,07,16,13,11,0.00
2019,07,16,13,12,0.00
2019,07,16,13,13,0.00
2019,07,16,13,14,1.60
2019,07,16,13,15,1.60
2019,07,16,13,16,1.60
2019,07,16,13,17,6.40
2019,07,16,13,18,6.40
2019,07,16,13,19,9.70
2019,07,16,13,20,11.30
2019,07,16,13,21,11.30
2019,07,16,13,22,11.30
2019,07,16,13,23,11.30
2019,07,16,13,24,11.30
2019,07,16,13,25,11.30
2019,07,16,13,26,8.00
2019,07,16,13,27,8.00
2019,07,16,13,28,8.00
2019,07,16,13,29,8.00
2019,07,16,13,30,8.00
2019,07,16,13,31,9.70
2019,07,16,13,32,9.70
2019,07,16,13,33,9.70
2019,07,16,13,34,12.90
2019,07,16,13,35,14.50
2019,07,16,13,36,11.30
2019,07,16,13,37,11.30
2019,07,16,13,38,17.70
2019,07,16,13,39,20.90
2019,07,16,13,40,20.90
2019,07,16,13,41,17.70
2019,07,16,13,42,17.70
2019,07,16,13,43,19.30
2019,07,16,13,44,24.10
2019,07,16,13,45,24.10
2019,07,16,13,46,19.30
2019,07,16,13,47,19.30
2019,07,16,13,48,19.30
2019,07,16,13,49,19.30
2019,07,16,13,50,19.30
2019,07,16,13,51,20.90
2019,07,16,13,52,24.10
2019,07,16,13,53,24.10
2019,07,16,13,54,24.10
2019,07,16,13,55,24.10
2019,07,16,13,56,14.50
2019,07,16,13,57,14.50
2019,07,16,13,58,19.30
2019,07,16,13,59,20.90
2019,07,16,14,00,25.70
2019,07,16,14,01,20.90
2019,07,16,14,02,22.50
2019,07,16,14,03,22.50
2019,07,16,14,04,24.10
2019,07,16,14,05,24.10
2019,07,16,14,06,24.10
2019,07,16,14,07,24.10
2019,07,16,14,08,24.10
2019,07,16,14,09,24.10
2019,07,16,14,10,24.10
2019,07,16,14,11,11.30
2019,07,16,14,12,11.30
2019,07,16,14,13,19.30
2019,07,16,14,14,20.90
2019,07,16,14,15,20.90
2019,07,16,14,16,14.50
2019,07,16,14,17,16.10
2019,07,16,14,18,16.10
2019,07,16,14,19,16.10
2019,07,16,14,20,19.30
2019,07,16,14,22,14.50
2019,07,16,14,23,14.50
2019,07,16,14,24,20.90
2019,07,16,14,25,25.70
2019,07,16,14,26,30.60
2019,07,16,14,27,30.60
2019,07,16,14,28,30.60
2019,07,16,14,29,30.60
2019,07,16,14,30,30.60
2019,07,16,14,31,14.50
2019,07,16,14,32,20.90
2019,07,16,14,33,20.90
2019,07,16,14,34,24.10
2019,07,16,14,35,24.10
2019,07,16,14,36,9.70
2019,07,16,14,37,17.70
2019,07,16,14,38,17.70
2019,07,16,14,39,20.90
2019,07,16,14,41,12.90
2019,07,16,14,42,12.90
2019,07,16,14,43,12.90
2019,07,16,14,44,20.90
2019,07,16,14,45,20.90
2019,07,16,14,47,12.90
2019,07,16,14,48,12.90
2019,07,16,14,49,12.90
2019,07,16,14,50,16.10
2019,07,16,14,51,11.30
2019,07,16,14,52,11.30
2019,07,16,14,53,11.30
2019,07,16,14,54,16.10
2019,07,16,14,55,16.10
2019,07,16,14,56,14.50
2019,07,16,14,57,16.10
2019,07,16,14,58,16.10
2019,07,16,14,59,16.10
2019,07,16,15,00,16.10
2019,07,16,15,01,12.90
2019,07,16,15,02,12.90
2019,07,16,15,03,12.90
2019,07,16,15,04,12.90
2019,07,16,15,05,12.90
2019,07,16,15,06,12.90
2019,07,16,15,07,12.90
2019,07,16,15,08,12.90
2019,07,16,15,09,12.90
2019,07,16,15,10,12.90
2019,07,16,15,11,11.30
2019,07,16,15,12,14.50
2019,07,16,15,13,16.10
2019,07,16,15,14,17.70
2019,07,16,15,15,17.70
2019,07,16,15,16,11.30
2019,07,16,15,17,14.50
2019,07,16,15,19,14.50
2019,07,16,15,20,16.10
2019,07,16,15,22,22.50
2019,07,16,15,23,22.50
2019,07,16,15,24,27.40
2019,07,16,15,25,27.40
2019,07,16,15,26,22.50
2019,07,16,15,27,22.50
2019,07,16,15,28,22.50
2019,07,16,15,29,22.50
2019,07,16,15,30,22.50
2019,07,16,15,31,25.70
2019,07,16,15,32,25.70
2019,07,16,15,33,25.70
2019,07,16,15,34,25.70
2019,07,16,15,35,25.70
2019,07,16,15,36,11.30
2019,07,16,15,37,17.70
2019,07,16,15,38,22.50
2019,07,16,15,39,22.50
2019,07,16,15,40,22.50
2019,07,16,15,41,16.10
2019,07,16,15,42,16.10
2019,07,16,15,43,17.70
2019,07,16,15,44,25.70
2019,07,16,15,45,25.70
2019,07,16,15,46,20.90
2019,07,16,15,47,20.90
2019,07,16,15,48,24.10
2019,07,16,15,49,24.10
2019,07,16,15,50,24.10
2019,07,16,15,52,14.50
2019,07,16,15,53,20.90
2019,07,16,15,54,20.90
2019,07,16,15,55,20.90
2019,07,16,15,56,6.40
2019,07,16,15,57,11.30
2019,07,16,15,58,11.30
2019,07,16,16,00,11.30
2019,07,16,16,01,11.30
2019,07,16,16,02,12.90
2019,07,16,16,03,12.90
2019,07,16,16,05,12.90
2019,07,16,16,06,14.50
2019,07,16,16,08,14.50
2019,07,16,16,09,14.50
2019,07,16,16,10,14.50
2019,07,16,16,11,20.90
2019,07,16,16,12,20.90
2019,07,16,16,13,20.90
2019,07,16,16,14,20.90
2019,07,16,16,15,20.90
2019,07,16,16,16,14.50
2019,07,16,16,17,17.70
2019,07,16,16,19,17.70
2019,07,16,16,20,17.70
2019,07,16,16,21,12.90
2019,07,16,16,22,16.10
2019,07,16,16,24,16.10
2019,07,16,16,25,16.10
2019,07,16,16,27,8.00
2019,07,16,16,28,8.00
2019,07,16,16,29,17.70
2019,07,16,16,30,20.90
2019,07,16,16,32,19.30
2019,07,16,16,33,20.90
2019,07,16,16,34,20.90
2019,07,16,16,35,20.90
2019,07,16,16,36,22.50
2019,07,16,16,37,22.50
2019,07,16,16,38,22.50
2019,07,16,16,40,25.70
2019,07,16,16,41,20.90
2019,07,16,16,43,20.90
2019,07,16,16,44,20.90
2019,07,16,16,45,20.90
2019,07,16,16,46,12.90
2019,07,16,16,47,12.90
2019,07,16,16,48,12.90
2019,07,16,16,49,12.90
2019,07,16,16,51,17.70
2019,07,16,16,52,19.30
2019,07,16,16,53,19.30
2019,07,16,16,55,19.30
2019,07,16,16,56,11.30
2019,07,16,16,58,16.10
2019,07,16,16,59,16.10
2019,07,16,17,00,16.10
2019,07,16,17,01,20.90
2019,07,16,17,02,20.90
2019,07,16,17,03,20.90
2019,07,16,17,04,20.90
2019,07,16,17,05,22.50
2019,07,16,17,06,16.10
2019,07,16,17,07,19.30
2019,07,16,17,08,20.90
2019,07,16,17,09,20.90
2019,07,16,17,10,20.90
2019,07,16,17,11,29.00
2019,07,16,17,12,29.00
2019,07,16,17,13,29.00
2019,07,16,17,15,29.00
2019,07,16,17,16,16.10
2019,07,16,17,17,16.10
2019,07,16,17,18,27.40
2019,07,16,17,19,27.40
2019,07,16,17,20,27.40
2019,07,16,17,21,20.90
2019,07,16,17,23,29.00
2019,07,16,17,24,29.00
2019,07,16,17,26,17.70
2019,07,16,17,27,27.40
2019,07,16,17,28,27.40
2019,07,16,17,29,35.40
2019,07,16,17,30,35.40
2019,07,16,17,32,30.60
2019,07,16,17,33,30.60
2019,07,16,17,34,30.60
2019,07,16,17,35,30.60
2019,07,16,17,37,29.00
2019,07,16,17,38,29.00
2019,07,16,17,39,29.00
2019,07,16,17,41,24.10
2019,07,16,17,42,24.10
2019,07,16,17,43,24.10
2019,07,16,17,45,27.40
2019,07,16,17,46,24.10
2019,07,16,17,48,24.10
2019,07,16,17,49,24.10
2019,07,16,17,50,24.10
2019,07,16,17,51,24.10
2019,07,16,17,52,24.10
2019,07,16,17,54,24.10
2019,07,16,17,55,24.10
2019,07,16,17,56,9.70
2019,07,16,17,57,24.10
2019,07,16,17,59,29.00
2019,07,16,18,00,29.00
2019,07,16,18,01,14.50
2019,07,16,18,02,14.50
2019,07,16,18,04,17.70
2019,07,16,18,05,25.70
2019,07,16,18,07,17.70
2019,07,16,18,08,25.70
2019,07,16,18,09,27.40
2019,07,16,18,10,27.40
2019,07,16,18,11,16.10
2019,07,16,18,13,24.10
2019,07,16,18,15,24.10
2019,07,16,18,16,25.70
2019,07,16,18,17,25.70
2019,07,16,18,18,25.70
2019,07,16,18,20,25.70
2019,07,16,18,21,20.90
2019,07,16,18,23,22.50
2019,07,16,18,24,22.50
2019,07,16,18,26,24.10
2019,07,16,18,28,24.10
2019,07,16,18,29,24.10
2019,07,16,18,30,29.00
2019,07,16,18,32,19.30
2019,07,16,18,33,20.90
2019,07,16,18,34,20.90
2019,07,16,18,36,22.50
2019,07,16,18,37,22.50
2019,07,16,18,38,22.50
2019,07,16,18,40,22.50
2019,07,16,18,41,14.50
2019,07,16,18,43,19.30
2019,07,16,18,44,19.30
2019,07,16,18,45,17.70
2019,07,16,18,47,22.50
2019,07,16,18,48,22.50
2019,07,16,18,50,27.40
2019,07,16,18,52,20.90
2019,07,16,18,53,20.90
2019,07,16,18,54,20.90
2019,07,16,18,55,14.50
2019,07,16,18,57,24.10
2019,07,16,18,59,24.10
2019,07,16,19,00,24.10
2019,07,16,19,02,24.10
2019,07,16,19,03,24.10
2019,07,16,19,04,24.10
2019,07,16,19,05,12.90
2019,07,16,19,07,17.70
2019,07,16,19,08,17.70
2019,07,16,19,09,17.70
2019,07,16,19,10,12.90
2019,07,16,19,11,16.10
2019,07,16,19,12,16.10
2019,07,16,19,14,16.10
2019,07,16,19,15,16.10
2019,07,16,19,16,9.70
2019,07,16,19,18,16.10
2019,07,16,19,19,19.30
2019,07,16,19,20,19.30
2019,07,16,19,22,14.50
2019,07,16,19,23,17.70
2019,07,16,19,24,17.70
2019,07,16,19,26,24.10
2019,07,16,19,28,24.10
2019,07,16,19,29,24.10
2019,07,16,19,31,20.90
2019,07,16,19,33,25.70
2019,07,16,19,34,25.70
2019,07,16,19,36,19.30
2019,07,16,19,37,20.90
2019,07,16,19,38,20.90
2019,07,16,19,40,20.90
2019,07,16,19,42,16.10
2019,07,16,19,43,16.10
2019,07,16,19,44,16.10
2019,07,16,19,45,19.30
2019,07,16,19,46,19.30
2019,07,16,19,47,19.30
2019,07,16,19,49,22.50
2019,07,16,19,51,19.30
2019,07,16,19,53,19.30
2019,07,16,19,54,19.30
2019,07,16,19,55,14.50
2019,07,16,19,57,16.10
2019,07,16,19,58,16.10
2019,07,16,20,00,16.10
2019,07,16,20,02,14.50
2019,07,16,20,03,16.10
2019,07,16,20,04,19.30
2019,07,16,20,05,19.30
2019,07,16,20,06,19.30
2019,07,16,20,07,19.30
2019,07,16,20,09,20.90
2019,07,16,20,10,17.70
2019,07,16,20,11,22.50
2019,07,16,20,12,22.50
2019,07,16,20,14,22.50
2019,07,16,20,16,20.90
2019,07,16,20,17,24.10
2019,07,16,20,18,25.70
2019,07,16,20,20,25.70
2019,07,16,20,21,29.00
2019,07,16,20,23,30.60
2019,07,16,20,24,30.60
2019,07,16,20,25,30.60
2019,07,16,20,27,25.70
2019,07,16,20,28,29.00
2019,07,16,20,30,30.60
2019,07,16,20,31,32.20